Time,TemperatureF,DewpointF,PressureIn,WindDirection,WindDirectionDegrees,WindSpeedMPH,WindSpeedGustMPH,Humidity,HourlyPrecipIn,Conditions,Clouds,dailyrainin,SoftwareType,DateUTC
2013-08-21 00:02:00,62.0,41.0,27.06,ESE,112,1.0,2.0,46,0.00,,,0.00,Rainwise IP-100,2013-08-21 06:02:00,
2013-08-21 00:07:00,62.0,41.0,27.06,East,90,2.0,3.0,46,0.00,,,0.00,Rainwise IP-100,2013-08-21 06:07:00,
2013-08-21 00:12:00,62.0,40.0,27.06,East,90,0.0,3.0,45,0.00,,,0.00,Rainwise IP-100,2013-08-21 06:12:00,
2013-08-21 00:17:00,62.0,41.0,27.06,East,90,0.0,2.0,46,0.00,,,0.00,Rainwise IP-100,2013-08-21 06:17:00,
2013-08-21 00:22:00,62.0,41.0,27.06,East,90,0.0,0.0,46,0.00,,,0.00,Rainwise IP-100,2013-08-21 06:22:00,
2013-08-21 00:27:00,62.0,41.0,27.07,North,360,0.0,2.0,47,0.00,,,0.00,Rainwise IP-100,2013-08-21 06:27:00,
2013-08-21 00:32:00,61.0,40.0,27.07,ESE,112,0.0,3.0,46,0.00,,,0.00,Rainwise IP-100,2013-08-21 06:32:00,
2013-08-21 00:37:00,61.0,40.0,27.07,SE,135,1.0,6.0,47,0.00,,,0.00,Rainwise IP-100,2013-08-21 06:37:00,
2013-08-21 00:42:00,61.0,40.0,27.07,SSE,157,0.0,5.0,47,0.00,,,0.00,Rainwise IP-100,2013-08-21 06:42:00,
2013-08-21 00:47:00,61.0,40.0,27.07,SSE,157,0.0,0.0,47,0.00,,,0.00,Rainwise IP-100,2013-08-21 06:47:00,
2013-08-21 00:52:00,60.0,40.0,27.07,SSW,202,0.0,1.0,48,0.00,,,0.00,Rainwise IP-100,2013-08-21 06:52:00,
2013-08-21 00:57:00,60.0,41.0,27.07,SSW,202,0.0,0.0,50,0.00,,,0.00,Rainwise IP-100,2013-08-21 06:57:00,
2013-08-21 01:02:00,59.0,40.0,27.07,SSW,202,0.0,0.0,49,0.00,,,0.00,Rainwise IP-100,2013-08-21 07:02:00,
2013-08-21 01:07:00,59.0,40.0,27.08,SSW,202,0.0,0.0,49,0.00,,,0.00,Rainwise IP-100,2013-08-21 07:07:00,
2013-08-21 01:12:00,59.0,41.0,27.08,SSW,202,0.0,0.0,51,0.00,,,0.00,Rainwise IP-100,2013-08-21 07:12:00,
2013-08-21 01:17:00,58.0,40.0,27.08,SSW,202,0.0,1.0,51,0.00,,,0.00,Rainwise IP-100,2013-08-21 07:17:00,
2013-08-21 01:22:00,58.0,40.0,27.08,SSW,202,0.0,0.0,52,0.00,,,0.00,Rainwise IP-100,2013-08-21 07:22:00,
2013-08-21 01:27:00,58.0,41.0,27.09,SSW,202,0.0,0.0,53,0.00,,,0.00,Rainwise IP-100,2013-08-21 07:27:00,
2013-08-21 01:32:00,57.0,40.0,27.09,SSW,202,0.0,0.0,54,0.00,,,0.00,Rainwise IP-100,2013-08-21 07:32:00,
2013-08-21 01:37:00,57.0,40.0,27.09,SSW,202,0.0,0.0,54,0.00,,,0.00,Rainwise IP-100,2013-08-21 07:37:00,
2013-08-21 01:42:00,56.0,40.0,27.09,SSW,202,0.0,0.0,56,0.00,,,0.00,Rainwise IP-100,2013-08-21 07:42:00,
2013-08-21 01:47:00,56.0,40.0,27.08,SSW,202,0.0,0.0,56,0.00,,,0.00,Rainwise IP-100,2013-08-21 07:47:00,
2013-08-21 01:52:00,57.0,42.0,27.08,East,90,1.0,4.0,57,0.00,,,0.00,Rainwise IP-100,2013-08-21 07:52:00,
2013-08-21 01:57:00,57.0,41.0,27.09,East,90,0.0,3.0,56,0.00,,,0.00,Rainwise IP-100,2013-08-21 07:57:00,
2013-08-21 02:02:00,57.0,40.0,27.09,East,90,0.0,1.0,54,0.00,,,0.00,Rainwise IP-100,2013-08-21 08:02:00,
2013-08-21 02:07:00,57.0,39.0,27.09,East,90,0.0,0.0,52,0.00,,,0.00,Rainwise IP-100,2013-08-21 08:07:00,
2013-08-21 02:12:00,57.0,40.0,27.09,East,90,0.0,0.0,53,0.00,,,0.00,Rainwise IP-100,2013-08-21 08:12:00,
2013-08-21 02:17:00,57.0,40.0,27.09,East,90,0.0,0.0,53,0.00,,,0.00,Rainwise IP-100,2013-08-21 08:17:00,
2013-08-21 02:22:00,57.0,40.0,27.09,WSW,247,1.0,3.0,53,0.00,,,0.00,Rainwise IP-100,2013-08-21 08:22:00,
2013-08-21 02:27:00,58.0,40.0,27.09,WSW,247,0.0,4.0,51,0.00,,,0.00,Rainwise IP-100,2013-08-21 08:27:00,
2013-08-21 02:32:00,57.0,39.0,27.09,WSW,247,0.0,0.0,51,0.00,,,0.00,Rainwise IP-100,2013-08-21 08:32:00,
2013-08-21 02:37:00,57.0,39.0,27.09,ENE,67,4.0,4.0,52,0.00,,,0.00,Rainwise IP-100,2013-08-21 08:37:00,
2013-08-21 02:42:00,57.0,39.0,27.09,ESE,112,0.0,5.0,51,0.00,,,0.00,Rainwise IP-100,2013-08-21 08:42:00,
2013-08-21 02:47:00,57.0,39.0,27.09,ESE,112,0.0,1.0,50,0.00,,,0.00,Rainwise IP-100,2013-08-21 08:47:00,
2013-08-21 02:52:00,56.0,38.0,27.09,ESE,112,0.0,0.0,52,0.00,,,0.00,Rainwise IP-100,2013-08-21 08:52:00,
2013-08-21 02:57:00,56.0,38.0,27.11,ESE,112,0.0,0.0,52,0.00,,,0.00,Rainwise IP-100,2013-08-21 08:57:00,
2013-08-21 03:02:00,55.0,38.0,27.11,ESE,112,0.0,1.0,52,0.00,,,0.00,Rainwise IP-100,2013-08-21 09:02:00,
2013-08-21 03:07:00,55.0,38.0,27.12,ESE,112,2.0,2.0,52,0.00,,,0.00,Rainwise IP-100,2013-08-21 09:07:00,
2013-08-21 03:12:00,55.0,38.0,27.12,East,90,1.0,3.0,52,0.00,,,0.00,Rainwise IP-100,2013-08-21 09:12:00,
2013-08-21 03:17:00,55.0,38.0,27.11,ESE,112,1.0,3.0,53,0.00,,,0.00,Rainwise IP-100,2013-08-21 09:17:00,
2013-08-21 03:22:00,55.0,38.0,27.11,SE,135,1.0,5.0,53,0.00,,,0.00,Rainwise IP-100,2013-08-21 09:22:00,
2013-08-21 03:27:00,55.0,38.0,27.11,SE,135,0.0,3.0,52,0.00,,,0.00,Rainwise IP-100,2013-08-21 09:27:00,
2013-08-21 03:32:00,55.0,38.0,27.11,ESE,112,0.0,2.0,53,0.00,,,0.00,Rainwise IP-100,2013-08-21 09:32:00,
2013-08-21 03:37:00,56.0,37.0,27.11,ESE,112,1.0,4.0,49,0.00,,,0.00,Rainwise IP-100,2013-08-21 09:37:00,
2013-08-21 03:42:00,56.0,37.0,27.11,ESE,112,0.0,5.0,49,0.00,,,0.00,Rainwise IP-100,2013-08-21 09:42:00,
2013-08-21 03:47:00,56.0,38.0,27.11,SE,135,2.0,3.0,50,0.00,,,0.00,Rainwise IP-100,2013-08-21 09:47:00,
2013-08-21 03:52:00,56.0,38.0,27.11,SE,135,4.0,5.0,51,0.00,,,0.00,Rainwise IP-100,2013-08-21 09:52:00,
2013-08-21 03:57:00,56.0,38.0,27.11,SE,135,2.0,5.0,52,0.00,,,0.00,Rainwise IP-100,2013-08-21 09:57:00,
2013-08-21 04:02:00,55.0,38.0,27.11,SE,135,0.0,2.0,53,0.00,,,0.00,Rainwise IP-100,2013-08-21 10:02:00,
2013-08-21 04:07:00,55.0,39.0,27.12,ESE,112,0.0,2.0,54,0.00,,,0.00,Rainwise IP-100,2013-08-21 10:07:00,
2013-08-21 04:12:00,54.0,38.0,27.12,ENE,67,2.0,4.0,55,0.00,,,0.00,Rainwise IP-100,2013-08-21 10:12:00,
2013-08-21 04:17:00,54.0,38.0,27.12,ENE,67,0.0,3.0,55,0.00,,,0.00,Rainwise IP-100,2013-08-21 10:17:00,
2013-08-21 04:22:00,54.0,39.0,27.12,East,90,1.0,2.0,56,0.00,,,0.00,Rainwise IP-100,2013-08-21 10:22:00,
2013-08-21 04:27:00,55.0,40.0,27.12,ESE,112,1.0,5.0,56,0.00,,,0.00,Rainwise IP-100,2013-08-21 10:27:00,
2013-08-21 04:32:00,55.0,40.0,27.12,ESE,112,2.0,6.0,56,0.00,,,0.00,Rainwise IP-100,2013-08-21 10:32:00,
2013-08-21 04:37:00,55.0,39.0,27.12,NE,45,0.0,6.0,54,0.00,,,0.00,Rainwise IP-100,2013-08-21 10:37:00,
2013-08-21 04:42:00,56.0,39.0,27.12,East,90,2.0,7.0,53,0.00,,,0.00,Rainwise IP-100,2013-08-21 10:42:00,
2013-08-21 04:47:00,56.0,39.0,27.12,East,90,1.0,6.0,53,0.00,,,0.00,Rainwise IP-100,2013-08-21 10:47:00,
2013-08-21 04:52:00,56.0,39.0,27.12,SE,135,2.0,5.0,53,0.00,,,0.00,Rainwise IP-100,2013-08-21 10:52:00,
2013-08-21 04:57:00,55.0,39.0,27.12,East,90,1.0,3.0,54,0.00,,,0.00,Rainwise IP-100,2013-08-21 10:57:00,
2013-08-21 05:02:00,55.0,39.0,27.12,ESE,112,1.0,3.0,55,0.00,,,0.00,Rainwise IP-100,2013-08-21 11:02:00,
2013-08-21 05:07:00,54.0,39.0,27.12,ESE,112,0.0,3.0,56,0.00,,,0.00,Rainwise IP-100,2013-08-21 11:07:00,
2013-08-21 05:12:00,53.0,37.0,27.12,ESE,112,0.0,1.0,56,0.00,,,0.00,Rainwise IP-100,2013-08-21 11:12:00,
2013-08-21 05:17:00,53.0,37.0,27.13,ESE,112,0.0,0.0,56,0.00,,,0.00,Rainwise IP-100,2013-08-21 11:17:00,
2013-08-21 05:22:00,53.0,38.0,27.13,ESE,112,0.0,0.0,57,0.00,,,0.00,Rainwise IP-100,2013-08-21 11:22:00,
2013-08-21 05:27:00,52.0,38.0,27.13,ESE,112,0.0,0.0,58,0.00,,,0.00,Rainwise IP-100,2013-08-21 11:27:00,
2013-08-21 05:32:00,52.0,38.0,27.13,ESE,112,2.0,2.0,60,0.00,,,0.00,Rainwise IP-100,2013-08-21 11:32:00,
2013-08-21 05:37:00,52.0,38.0,27.13,ESE,112,0.0,2.0,60,0.00,,,0.00,Rainwise IP-100,2013-08-21 11:37:00,
2013-08-21 05:42:00,51.0,38.0,27.13,ESE,112,0.0,1.0,60,0.00,,,0.00,Rainwise IP-100,2013-08-21 11:42:00,
2013-08-21 05:47:00,51.0,38.0,27.13,ESE,112,0.0,0.0,60,0.00,,,0.00,Rainwise IP-100,2013-08-21 11:47:00,
2013-08-21 05:52:00,51.0,39.0,27.13,ESE,112,0.0,0.0,62,0.00,,,0.00,Rainwise IP-100,2013-08-21 11:52:00,
2013-08-21 05:57:00,50.0,37.0,27.14,ESE,112,0.0,0.0,62,0.00,,,0.00,Rainwise IP-100,2013-08-21 11:57:00,
2013-08-21 06:02:00,50.0,38.0,27.14,ESE,112,0.0,0.0,64,0.00,,,0.00,Rainwise IP-100,2013-08-21 12:02:00,
2013-08-21 06:07:00,49.0,38.0,27.15,ESE,112,0.0,0.0,66,0.00,,,0.00,Rainwise IP-100,2013-08-21 12:07:00,
2013-08-21 06:12:00,49.0,38.0,27.15,ESE,112,0.0,0.0,67,0.00,,,0.00,Rainwise IP-100,2013-08-21 12:12:00,
2013-08-21 06:17:00,49.0,39.0,27.15,ESE,112,0.0,0.0,68,0.00,,,0.00,Rainwise IP-100,2013-08-21 12:17:00,
2013-08-21 06:22:00,49.0,39.0,27.15,ESE,112,0.0,0.0,68,0.00,,,0.00,Rainwise IP-100,2013-08-21 12:22:00,
2013-08-21 06:27:00,49.0,39.0,27.15,ESE,112,0.0,0.0,68,0.00,,,0.00,Rainwise IP-100,2013-08-21 12:27:00,
2013-08-21 06:32:00,49.0,39.0,27.15,ESE,112,0.0,0.0,68,0.00,,,0.00,Rainwise IP-100,2013-08-21 12:32:00,
2013-08-21 06:37:00,49.0,39.0,27.15,ESE,112,0.0,0.0,68,0.00,,,0.00,Rainwise IP-100,2013-08-21 12:37:00,
2013-08-21 06:42:00,48.0,38.0,27.15,ESE,112,0.0,0.0,68,0.00,,,0.00,Rainwise IP-100,2013-08-21 12:42:00,
2013-08-21 06:47:00,48.0,38.0,27.15,ESE,112,0.0,0.0,68,0.00,,,0.00,Rainwise IP-100,2013-08-21 12:47:00,
2013-08-21 06:52:00,48.0,38.0,27.15,ESE,112,0.0,0.0,67,0.00,,,0.00,Rainwise IP-100,2013-08-21 12:52:00,
2013-08-21 06:57:00,48.0,37.0,27.15,ESE,112,0.0,0.0,66,0.00,,,0.00,Rainwise IP-100,2013-08-21 12:57:00,
2013-08-21 07:02:00,48.0,37.0,27.15,ESE,112,0.0,0.0,66,0.00,,,0.00,Rainwise IP-100,2013-08-21 13:02:00,
2013-08-21 07:07:00,48.0,37.0,27.16,ESE,112,0.0,0.0,66,0.00,,,0.00,Rainwise IP-100,2013-08-21 13:07:00,
2013-08-21 07:12:00,48.0,38.0,27.16,ESE,112,0.0,0.0,67,0.00,,,0.00,Rainwise IP-100,2013-08-21 13:12:00,
2013-08-21 07:17:00,48.0,38.0,27.16,ESE,112,0.0,0.0,67,0.00,,,0.00,Rainwise IP-100,2013-08-21 13:17:00,
2013-08-21 07:22:00,48.0,38.0,27.16,ESE,112,0.0,0.0,67,0.00,,,0.00,Rainwise IP-100,2013-08-21 13:22:00,
2013-08-21 07:27:00,49.0,38.0,27.17,ESE,112,0.0,0.0,67,0.00,,,0.00,Rainwise IP-100,2013-08-21 13:27:00,
2013-08-21 07:32:00,50.0,38.0,27.17,ESE,112,0.0,0.0,64,0.00,,,0.00,Rainwise IP-100,2013-08-21 13:32:00,
2013-08-21 07:37:00,51.0,39.0,27.15,ESE,112,0.0,0.0,62,0.00,,,0.00,Rainwise IP-100,2013-08-21 13:37:00,
2013-08-21 07:42:00,52.0,39.0,27.15,ESE,112,0.0,0.0,61,0.00,,,0.00,Rainwise IP-100,2013-08-21 13:42:00,
2013-08-21 07:47:00,54.0,40.0,27.15,ESE,112,0.0,1.0,59,0.00,,,0.00,Rainwise IP-100,2013-08-21 13:47:00,
2013-08-21 07:52:00,55.0,40.0,27.15,ESE,112,0.0,0.0,57,0.00,,,0.00,Rainwise IP-100,2013-08-21 13:52:00,
2013-08-21 07:57:00,55.0,39.0,27.16,ESE,112,0.0,0.0,55,0.00,,,0.00,Rainwise IP-100,2013-08-21 13:57:00,
2013-08-21 08:02:00,56.0,38.0,27.16,ESE,112,0.0,1.0,51,0.00,,,0.00,Rainwise IP-100,2013-08-21 14:02:00,
2013-08-21 08:07:00,57.0,38.0,27.15,ESE,112,0.0,1.0,49,0.00,,,0.00,Rainwise IP-100,2013-08-21 14:07:00,
2013-08-21 08:12:00,58.0,39.0,27.15,ESE,112,0.0,0.0,48,0.00,,,0.00,Rainwise IP-100,2013-08-21 14:12:00,
2013-08-21 08:17:00,58.0,38.0,27.16,ESE,112,0.0,0.0,46,0.00,,,0.00,Rainwise IP-100,2013-08-21 14:17:00,
2013-08-21 08:22:00,59.0,38.0,27.16,ESE,112,0.0,0.0,45,0.00,,,0.00,Rainwise IP-100,2013-08-21 14:22:00,
2013-08-21 08:27:00,59.0,38.0,27.17,ESE,112,0.0,0.0,46,0.00,,,0.00,Rainwise IP-100,2013-08-21 14:27:00,
2013-08-21 08:32:00,59.0,38.0,27.17,ENE,67,2.0,3.0,46,0.00,,,0.00,Rainwise IP-100,2013-08-21 14:32:00,
2013-08-21 08:37:00,60.0,39.0,27.17,ENE,67,0.0,2.0,46,0.00,,,0.00,Rainwise IP-100,2013-08-21 14:37:00,
2013-08-21 08:42:00,60.0,39.0,27.17,ENE,67,0.0,0.0,47,0.00,,,0.00,Rainwise IP-100,2013-08-21 14:42:00,
2013-08-21 08:47:00,61.0,39.0,27.17,SSE,157,4.0,5.0,45,0.00,,,0.00,Rainwise IP-100,2013-08-21 14:47:00,
2013-08-21 08:52:00,60.0,39.0,27.17,SSE,157,2.0,5.0,46,0.00,,,0.00,Rainwise IP-100,2013-08-21 14:52:00,
2013-08-21 08:57:00,61.0,40.0,27.19,West,270,0.0,5.0,47,0.00,,,0.00,Rainwise IP-100,2013-08-21 14:57:00,
2013-08-21 09:02:00,61.0,39.0,27.19,West,270,1.0,3.0,45,0.00,,,0.00,Rainwise IP-100,2013-08-21 15:02:00,
2013-08-21 09:07:00,61.0,40.0,27.19,West,270,4.0,6.0,46,0.00,,,0.00,Rainwise IP-100,2013-08-21 15:07:00,
2013-08-21 09:12:00,62.0,40.0,27.19,WNW,292,1.0,4.0,45,0.00,,,0.00,Rainwise IP-100,2013-08-21 15:12:00,
2013-08-21 09:17:00,63.0,40.0,27.19,NNE,22,1.0,4.0,43,0.00,,,0.00,Rainwise IP-100,2013-08-21 15:17:00,
2013-08-21 09:22:00,63.0,40.0,27.19,NE,45,3.0,3.0,43,0.00,,,0.00,Rainwise IP-100,2013-08-21 15:22:00,
2013-08-21 09:27:00,64.0,40.0,27.19,SE,135,3.0,5.0,42,0.00,,,0.00,Rainwise IP-100,2013-08-21 15:27:00,
2013-08-21 09:32:00,64.0,40.0,27.19,SSW,202,3.0,5.0,41,0.00,,,0.00,Rainwise IP-100,2013-08-21 15:32:00,
2013-08-21 09:37:00,64.0,39.0,27.19,SSE,157,2.0,3.0,40,0.00,,,0.00,Rainwise IP-100,2013-08-21 15:37:00,
2013-08-21 09:42:00,65.0,39.0,27.19,ESE,112,0.0,4.0,39,0.00,,,0.00,Rainwise IP-100,2013-08-21 15:42:00,
2013-08-21 09:47:00,65.0,39.0,27.19,East,90,1.0,4.0,39,0.00,,,0.00,Rainwise IP-100,2013-08-21 15:47:00,
2013-08-21 09:52:00,65.0,38.0,27.19,NE,45,0.0,5.0,37,0.00,,,0.00,Rainwise IP-100,2013-08-21 15:52:00,
2013-08-21 09:57:00,66.0,39.0,27.19,NNE,22,3.0,5.0,37,0.00,,,0.00,Rainwise IP-100,2013-08-21 15:57:00,
2013-08-21 10:02:00,66.0,38.0,27.19,ENE,67,2.0,6.0,36,0.00,,,0.00,Rainwise IP-100,2013-08-21 16:02:00,
2013-08-21 10:07:00,66.0,38.0,27.19,WNW,292,0.0,4.0,36,0.00,,,0.00,Rainwise IP-100,2013-08-21 16:07:00,
2013-08-21 10:12:00,67.0,39.0,27.19,South,180,0.0,0.0,36,0.00,,,0.00,Rainwise IP-100,2013-08-21 16:12:00,
2013-08-21 10:17:00,68.0,38.0,27.20,ESE,112,4.0,4.0,34,0.00,,,0.00,Rainwise IP-100,2013-08-21 16:17:00,
2013-08-21 10:22:00,68.0,38.0,27.20,East,90,1.0,4.0,34,0.00,,,0.00,Rainwise IP-100,2013-08-21 16:22:00,
2013-08-21 10:27:00,69.0,39.0,27.19,East,90,0.0,3.0,34,0.00,,,0.00,Rainwise IP-100,2013-08-21 16:27:00,
2013-08-21 10:32:00,69.0,38.0,27.19,ENE,67,4.0,5.0,33,0.00,,,0.00,Rainwise IP-100,2013-08-21 16:32:00,
2013-08-21 10:37:00,69.0,38.0,27.20,North,360,4.0,6.0,33,0.00,,,0.00,Rainwise IP-100,2013-08-21 16:37:00,
2013-08-21 10:42:00,69.0,38.0,27.20,North,360,1.0,6.0,33,0.00,,,0.00,Rainwise IP-100,2013-08-21 16:42:00,
2013-08-21 10:47:00,70.0,39.0,27.20,NW,315,5.0,7.0,33,0.00,,,0.00,Rainwise IP-100,2013-08-21 16:47:00,
2013-08-21 10:52:00,70.0,39.0,27.20,North,360,1.0,6.0,33,0.00,,,0.00,Rainwise IP-100,2013-08-21 16:52:00,
2013-08-21 10:57:00,71.0,39.0,27.19,North,360,1.0,6.0,32,0.00,,,0.00,Rainwise IP-100,2013-08-21 16:57:00,
2013-08-21 11:02:00,71.0,39.0,27.19,West,270,3.0,6.0,31,0.00,,,0.00,Rainwise IP-100,2013-08-21 17:02:00,
2013-08-21 11:07:00,71.0,39.0,27.20,West,270,3.0,6.0,32,0.00,,,0.00,Rainwise IP-100,2013-08-21 17:07:00,
2013-08-21 11:12:00,71.0,39.0,27.20,ESE,112,2.0,6.0,31,0.00,,,0.00,Rainwise IP-100,2013-08-21 17:12:00,
2013-08-21 11:17:00,70.0,38.0,27.20,WNW,292,5.0,7.0,31,0.00,,,0.00,Rainwise IP-100,2013-08-21 17:17:00,
2013-08-21 11:22:00,70.0,39.0,27.20,WSW,247,6.0,7.0,33,0.00,,,0.00,Rainwise IP-100,2013-08-21 17:22:00,
2013-08-21 11:27:00,70.0,38.0,27.20,West,270,1.0,7.0,31,0.00,,,0.00,Rainwise IP-100,2013-08-21 17:27:00,
2013-08-21 11:32:00,71.0,38.0,27.20,NNE,22,3.0,5.0,30,0.00,,,0.00,Rainwise IP-100,2013-08-21 17:32:00,
2013-08-21 11:37:00,72.0,39.0,27.20,West,270,3.0,6.0,30,0.00,,,0.00,Rainwise IP-100,2013-08-21 17:37:00,
2013-08-21 11:42:00,73.0,40.0,27.20,SSW,202,2.0,6.0,31,0.00,,,0.00,Rainwise IP-100,2013-08-21 17:42:00,
2013-08-21 11:47:00,74.0,40.0,27.20,SE,135,6.0,7.0,29,0.00,,,0.00,Rainwise IP-100,2013-08-21 17:47:00,
2013-08-21 11:52:00,73.0,40.0,27.20,SE,135,6.0,7.0,30,0.00,,,0.00,Rainwise IP-100,2013-08-21 17:52:00,
2013-08-21 11:57:00,74.0,40.0,27.19,WSW,247,2.0,6.0,29,0.00,,,0.00,Rainwise IP-100,2013-08-21 17:57:00,
2013-08-21 12:02:00,74.0,40.0,27.19,WNW,292,1.0,6.0,29,0.00,,,0.00,Rainwise IP-100,2013-08-21 18:02:00,
2013-08-21 12:07:00,75.0,39.0,27.19,SSE,157,5.0,5.0,27,0.00,,,0.00,Rainwise IP-100,2013-08-21 18:07:00,
2013-08-21 12:12:00,76.0,38.0,27.19,West,270,1.0,6.0,26,0.00,,,0.00,Rainwise IP-100,2013-08-21 18:12:00,
2013-08-21 12:17:00,76.0,38.0,27.18,NNW,337,7.0,8.0,25,0.00,,,0.00,Rainwise IP-100,2013-08-21 18:17:00,
2013-08-21 12:22:00,77.0,39.0,27.18,SE,135,1.0,7.0,26,0.00,,,0.00,Rainwise IP-100,2013-08-21 18:22:00,
2013-08-21 12:27:00,77.0,39.0,27.19,SE,135,4.0,6.0,25,0.00,,,0.00,Rainwise IP-100,2013-08-21 18:27:00,
2013-08-21 12:32:00,77.0,39.0,27.19,NW,315,0.0,7.0,26,0.00,,,0.00,Rainwise IP-100,2013-08-21 18:32:00,
2013-08-21 12:37:00,77.0,39.0,27.18,NW,315,1.0,6.0,25,0.00,,,0.00,Rainwise IP-100,2013-08-21 18:37:00,
2013-08-21 12:42:00,77.0,39.0,27.18,North,360,0.0,6.0,25,0.00,,,0.00,Rainwise IP-100,2013-08-21 18:42:00,
2013-08-21 12:47:00,77.0,38.0,27.18,NW,315,3.0,9.0,24,0.00,,,0.00,Rainwise IP-100,2013-08-21 18:47:00,
2013-08-21 12:52:00,77.0,38.0,27.18,NW,315,4.0,6.0,24,0.00,,,0.00,Rainwise IP-100,2013-08-21 18:52:00,
2013-08-21 12:57:00,77.0,37.0,27.18,WSW,247,4.0,7.0,23,0.00,,,0.00,Rainwise IP-100,2013-08-21 18:57:00,
2013-08-21 13:02:00,78.0,38.0,27.18,NE,45,3.0,6.0,24,0.00,,,0.00,Rainwise IP-100,2013-08-21 19:02:00,
2013-08-21 13:07:00,79.0,38.0,27.16,South,180,2.0,6.0,23,0.00,,,0.00,Rainwise IP-100,2013-08-21 19:07:00,
2013-08-21 13:12:00,79.0,38.0,27.16,NW,315,5.0,7.0,23,0.00,,,0.00,Rainwise IP-100,2013-08-21 19:12:00,
2013-08-21 13:17:00,80.0,38.0,27.16,ESE,112,5.0,7.0,22,0.00,,,0.00,Rainwise IP-100,2013-08-21 19:17:00,
2013-08-21 13:22:00,80.0,37.0,27.16,SSE,157,4.0,7.0,21,0.00,,,0.00,Rainwise IP-100,2013-08-21 19:22:00,
2013-08-21 13:27:00,79.0,37.0,27.17,West,270,5.0,9.0,22,0.00,,,0.00,Rainwise IP-100,2013-08-21 19:27:00,
2013-08-21 13:32:00,80.0,38.0,27.17,West,270,3.0,8.0,22,0.00,,,0.00,Rainwise IP-100,2013-08-21 19:32:00,
2013-08-21 13:37:00,81.0,39.0,27.15,NW,315,2.0,5.0,22,0.00,,,0.00,Rainwise IP-100,2013-08-21 19:37:00,
2013-08-21 13:42:00,81.0,36.0,27.15,NNE,22,1.0,7.0,20,0.00,,,0.00,Rainwise IP-100,2013-08-21 19:42:00,
2013-08-21 13:47:00,82.0,37.0,27.15,North,360,5.0,8.0,20,0.00,,,0.00,Rainwise IP-100,2013-08-21 19:47:00,
2013-08-21 13:52:00,82.0,37.0,27.15,NNW,337,3.0,7.0,20,0.00,,,0.00,Rainwise IP-100,2013-08-21 19:52:00,
2013-08-21 13:57:00,81.0,36.0,27.15,WNW,292,4.0,9.0,20,0.00,,,0.00,Rainwise IP-100,2013-08-21 19:57:00,
2013-08-21 14:02:00,82.0,36.0,27.15,NNW,337,5.0,7.0,19,0.00,,,0.00,Rainwise IP-100,2013-08-21 20:02:00,
2013-08-21 14:07:00,83.0,37.0,27.15,North,360,4.0,7.0,19,0.00,,,0.00,Rainwise IP-100,2013-08-21 20:07:00,
2013-08-21 14:12:00,83.0,37.0,27.15,NE,45,3.0,7.0,19,0.00,,,0.00,Rainwise IP-100,2013-08-21 20:12:00,
2013-08-21 14:17:00,84.0,37.0,27.15,West,270,5.0,7.0,19,0.00,,,0.00,Rainwise IP-100,2013-08-21 20:17:00,
2013-08-21 14:22:00,83.0,36.0,27.15,NW,315,6.0,10.0,18,0.00,,,0.00,Rainwise IP-100,2013-08-21 20:22:00,
2013-08-21 14:27:00,83.0,32.0,27.16,NNW,337,7.0,10.0,16,0.00,,,0.00,Rainwise IP-100,2013-08-21 20:27:00,
2013-08-21 14:32:00,84.0,35.0,27.16,NNE,22,4.0,9.0,17,0.00,,,0.00,Rainwise IP-100,2013-08-21 20:32:00,
2013-08-21 14:37:00,84.0,33.0,27.15,West,270,7.0,8.0,16,0.00,,,0.00,Rainwise IP-100,2013-08-21 20:37:00,
2013-08-21 14:42:00,84.0,28.0,27.15,NW,315,5.0,8.0,13,0.00,,,0.00,Rainwise IP-100,2013-08-21 20:42:00,
2013-08-21 14:47:00,85.0,28.0,27.15,NNE,22,2.0,7.0,12,0.00,,,0.00,Rainwise IP-100,2013-08-21 20:47:00,
2013-08-21 14:52:00,85.0,29.0,27.15,NE,45,2.0,8.0,13,0.00,,,0.00,Rainwise IP-100,2013-08-21 20:52:00,
2013-08-21 14:57:00,85.0,31.0,27.16,WNW,292,0.0,6.0,14,0.00,,,0.00,Rainwise IP-100,2013-08-21 20:57:00,
2013-08-21 15:02:00,84.0,31.0,27.16,West,270,6.0,9.0,14,0.00,,,0.00,Rainwise IP-100,2013-08-21 21:02:00,
2013-08-21 15:07:00,84.0,28.0,27.17,WNW,292,5.0,7.0,13,0.00,,,0.00,Rainwise IP-100,2013-08-21 21:07:00,
2013-08-21 15:12:00,84.0,31.0,27.17,West,270,4.0,8.0,14,0.00,,,0.00,Rainwise IP-100,2013-08-21 21:12:00,
2013-08-21 15:17:00,85.0,32.0,27.16,ENE,67,0.0,5.0,15,0.00,,,0.00,Rainwise IP-100,2013-08-21 21:17:00,
2013-08-21 15:22:00,87.0,31.0,27.16,West,270,2.0,9.0,13,0.00,,,0.00,Rainwise IP-100,2013-08-21 21:22:00,
2013-08-21 15:27:00,86.0,32.0,27.15,West,270,3.0,10.0,14,0.00,,,0.00,Rainwise IP-100,2013-08-21 21:27:00,
2013-08-21 15:32:00,86.0,29.0,27.15,North,360,1.0,7.0,13,0.00,,,0.00,Rainwise IP-100,2013-08-21 21:32:00,
2013-08-21 15:37:00,87.0,33.0,27.16,WSW,247,1.0,9.0,15,0.00,,,0.00,Rainwise IP-100,2013-08-21 21:37:00,
2013-08-21 15:42:00,86.0,33.0,27.16,NW,315,4.0,10.0,15,0.00,,,0.00,Rainwise IP-100,2013-08-21 21:42:00,
2013-08-21 15:47:00,86.0,35.0,27.15,NNW,337,2.0,9.0,16,0.00,,,0.00,Rainwise IP-100,2013-08-21 21:47:00,
2013-08-21 15:52:00,86.0,32.0,27.15,WNW,292,9.0,10.0,14,0.00,,,0.00,Rainwise IP-100,2013-08-21 21:52:00,
2013-08-21 15:57:00,86.0,35.0,27.14,SSW,202,2.0,9.0,16,0.00,,,0.00,Rainwise IP-100,2013-08-21 21:57:00,
2013-08-21 16:02:00,85.0,32.0,27.14,West,270,1.0,9.0,15,0.00,,,0.00,Rainwise IP-100,2013-08-21 22:02:00,
2013-08-21 16:07:00,86.0,33.0,27.14,WNW,292,4.0,7.0,15,0.00,,,0.00,Rainwise IP-100,2013-08-21 22:07:00,
2013-08-21 16:12:00,86.0,29.0,27.14,NW,315,3.0,8.0,13,0.00,,,0.00,Rainwise IP-100,2013-08-21 22:12:00,
2013-08-21 16:17:00,87.0,31.0,27.13,WNW,292,0.0,5.0,13,0.00,,,0.00,Rainwise IP-100,2013-08-21 22:17:00,
2013-08-21 16:22:00,88.0,31.0,27.13,NNW,337,4.0,6.0,13,0.00,,,0.00,Rainwise IP-100,2013-08-21 22:22:00,
2013-08-21 16:27:00,87.0,32.0,27.12,NW,315,4.0,7.0,14,0.00,,,0.00,Rainwise IP-100,2013-08-21 22:27:00,
2013-08-21 16:32:00,87.0,32.0,27.12,NE,45,1.0,7.0,14,0.00,,,0.00,Rainwise IP-100,2013-08-21 22:32:00,
2013-08-21 16:37:00,86.0,32.0,27.11,WNW,292,4.0,7.0,14,0.00,,,0.00,Rainwise IP-100,2013-08-21 22:37:00,
2013-08-21 16:42:00,86.0,32.0,27.11,West,270,6.0,7.0,14,0.00,,,0.00,Rainwise IP-100,2013-08-21 22:42:00,
2013-08-21 16:47:00,86.0,32.0,27.11,WNW,292,3.0,6.0,14,0.00,,,0.00,Rainwise IP-100,2013-08-21 22:47:00,
2013-08-21 16:52:00,86.0,32.0,27.11,ESE,112,1.0,4.0,14,0.00,,,0.00,Rainwise IP-100,2013-08-21 22:52:00,
2013-08-21 16:57:00,87.0,31.0,27.10,NE,45,0.0,7.0,13,0.00,,,0.00,Rainwise IP-100,2013-08-21 22:57:00,
2013-08-21 17:02:00,86.0,35.0,27.10,West,270,3.0,7.0,16,0.00,,,0.00,Rainwise IP-100,2013-08-21 23:02:00,
2013-08-21 17:07:00,86.0,35.0,27.10,West,270,3.0,6.0,16,0.00,,,0.00,Rainwise IP-100,2013-08-21 23:07:00,
2013-08-21 17:12:00,86.0,35.0,27.10,SSW,202,1.0,6.0,16,0.00,,,0.00,Rainwise IP-100,2013-08-21 23:12:00,
2013-08-21 17:17:00,86.0,36.0,27.09,West,270,6.0,6.0,17,0.00,,,0.00,Rainwise IP-100,2013-08-21 23:17:00,
2013-08-21 17:22:00,86.0,36.0,27.09,SW,225,1.0,6.0,17,0.00,,,0.00,Rainwise IP-100,2013-08-21 23:22:00,
2013-08-21 17:27:00,85.0,36.0,27.09,WSW,247,6.0,9.0,17,0.00,,,0.00,Rainwise IP-100,2013-08-21 23:27:00,
2013-08-21 17:32:00,85.0,36.0,27.09,West,270,3.0,6.0,17,0.00,,,0.00,Rainwise IP-100,2013-08-21 23:32:00,
2013-08-21 17:37:00,85.0,37.0,27.09,SW,225,0.0,6.0,18,0.00,,,0.00,Rainwise IP-100,2013-08-21 23:37:00,
2013-08-21 17:42:00,85.0,37.0,27.09,West,270,3.0,6.0,18,0.00,,,0.00,Rainwise IP-100,2013-08-21 23:42:00,
2013-08-21 17:47:00,86.0,38.0,27.08,SW,225,0.0,7.0,18,0.00,,,0.00,Rainwise IP-100,2013-08-21 23:47:00,
2013-08-21 17:52:00,87.0,37.0,27.08,SSW,202,3.0,5.0,17,0.00,,,0.00,Rainwise IP-100,2013-08-21 23:52:00,
2013-08-21 17:57:00,86.0,35.0,27.09,WSW,247,5.0,6.0,16,0.00,,,0.00,Rainwise IP-100,2013-08-21 23:57:00,
2013-08-21 18:02:00,86.0,38.0,27.09,WSW,247,2.0,7.0,18,0.00,,,0.00,Rainwise IP-100,2013-08-22 00:02:00,
2013-08-21 18:07:00,86.0,35.0,27.08,West,270,1.0,6.0,16,0.00,,,0.00,Rainwise IP-100,2013-08-22 00:07:00,
2013-08-21 18:12:00,87.0,36.0,27.08,WSW,247,0.0,6.0,16,0.00,,,0.00,Rainwise IP-100,2013-08-22 00:12:00,
2013-08-21 18:17:00,87.0,36.0,27.07,West,270,3.0,5.0,16,0.00,,,0.00,Rainwise IP-100,2013-08-22 00:17:00,
2013-08-21 18:22:00,86.0,35.0,27.07,West,270,1.0,6.0,16,0.00,,,0.00,Rainwise IP-100,2013-08-22 00:22:00,
2013-08-21 18:27:00,86.0,35.0,27.07,NW,315,0.0,3.0,16,0.00,,,0.00,Rainwise IP-100,2013-08-22 00:27:00,
2013-08-21 18:32:00,86.0,33.0,27.07,North,360,4.0,6.0,15,0.00,,,0.00,Rainwise IP-100,2013-08-22 00:32:00,
2013-08-21 18:37:00,85.0,33.0,27.07,North,360,1.0,7.0,16,0.00,,,0.00,Rainwise IP-100,2013-08-22 00:37:00,
2013-08-21 18:42:00,85.0,33.0,27.07,NW,315,8.0,9.0,16,0.00,,,0.00,Rainwise IP-100,2013-08-22 00:42:00,
2013-08-21 18:47:00,85.0,33.0,27.05,NW,315,6.0,9.0,16,0.00,,,0.00,Rainwise IP-100,2013-08-22 00:47:00,
2013-08-21 18:52:00,85.0,33.0,27.05,WSW,247,3.0,7.0,16,0.00,,,0.00,Rainwise IP-100,2013-08-22 00:52:00,
2013-08-21 18:57:00,84.0,35.0,27.06,WSW,247,7.0,7.0,17,0.00,,,0.00,Rainwise IP-100,2013-08-22 00:57:00,
2013-08-21 19:02:00,84.0,35.0,27.06,NW,315,5.0,7.0,17,0.00,,,0.00,Rainwise IP-100,2013-08-22 01:02:00,
2013-08-21 19:07:00,83.0,33.0,27.06,WNW,292,6.0,7.0,17,0.00,,,0.00,Rainwise IP-100,2013-08-22 01:07:00,
2013-08-21 19:12:00,83.0,36.0,27.06,WNW,292,1.0,7.0,18,0.00,,,0.00,Rainwise IP-100,2013-08-22 01:12:00,
2013-08-21 19:17:00,82.0,35.0,27.05,West,270,2.0,5.0,18,0.00,,,0.00,Rainwise IP-100,2013-08-22 01:17:00,
2013-08-21 19:22:00,81.0,36.0,27.05,SW,225,2.0,6.0,20,0.00,,,0.00,Rainwise IP-100,2013-08-22 01:22:00,
2013-08-21 19:27:00,81.0,36.0,27.04,West,270,0.0,5.0,20,0.00,,,0.00,Rainwise IP-100,2013-08-22 01:27:00,
2013-08-21 19:32:00,81.0,36.0,27.04,WSW,247,2.0,6.0,20,0.00,,,0.00,Rainwise IP-100,2013-08-22 01:32:00,
2013-08-21 19:37:00,81.0,39.0,27.03,SW,225,0.0,6.0,22,0.00,,,0.00,Rainwise IP-100,2013-08-22 01:37:00,
2013-08-21 19:42:00,81.0,41.0,27.03,SSW,202,0.0,4.0,24,0.00,,,0.00,Rainwise IP-100,2013-08-22 01:42:00,
2013-08-21 19:47:00,80.0,40.0,27.04,West,270,5.0,6.0,24,0.00,,,0.00,Rainwise IP-100,2013-08-22 01:47:00,
2013-08-21 19:52:00,79.0,39.0,27.04,WNW,292,1.0,6.0,24,0.00,,,0.00,Rainwise IP-100,2013-08-22 01:52:00,
2013-08-21 19:57:00,78.0,38.0,27.04,SW,225,0.0,2.0,24,0.00,,,0.00,Rainwise IP-100,2013-08-22 01:57:00,
2013-08-21 20:02:00,78.0,39.0,27.04,SSW,202,0.0,4.0,25,0.00,,,0.00,Rainwise IP-100,2013-08-22 02:02:00,
2013-08-21 20:07:00,77.0,39.0,27.04,South,180,0.0,3.0,25,0.00,,,0.00,Rainwise IP-100,2013-08-22 02:07:00,
2013-08-21 20:12:00,76.0,38.0,27.04,SSW,202,3.0,5.0,26,0.00,,,0.00,Rainwise IP-100,2013-08-22 02:12:00,
2013-08-21 20:17:00,76.0,38.0,27.03,South,180,0.0,4.0,26,0.00,,,0.00,Rainwise IP-100,2013-08-22 02:17:00,
2013-08-21 20:22:00,75.0,39.0,27.03,South,180,3.0,5.0,27,0.00,,,0.00,Rainwise IP-100,2013-08-22 02:22:00,
2013-08-21 20:27:00,75.0,39.0,27.03,South,180,1.0,4.0,27,0.00,,,0.00,Rainwise IP-100,2013-08-22 02:27:00,
2013-08-21 20:32:00,74.0,38.0,27.03,SSW,202,5.0,5.0,27,0.00,,,0.00,Rainwise IP-100,2013-08-22 02:32:00,
2013-08-21 20:37:00,74.0,38.0,27.02,SW,225,1.0,5.0,27,0.00,,,0.00,Rainwise IP-100,2013-08-22 02:37:00,
2013-08-21 20:42:00,73.0,37.0,27.02,SSW,202,3.0,4.0,27,0.00,,,0.00,Rainwise IP-100,2013-08-22 02:42:00,
2013-08-21 20:47:00,73.0,38.0,27.03,South,180,1.0,4.0,28,0.00,,,0.00,Rainwise IP-100,2013-08-22 02:47:00,
2013-08-21 20:52:00,72.0,38.0,27.03,South,180,2.0,3.0,29,0.00,,,0.00,Rainwise IP-100,2013-08-22 02:52:00,
2013-08-21 20:57:00,72.0,38.0,27.03,SSE,157,3.0,4.0,29,0.00,,,0.00,Rainwise IP-100,2013-08-22 02:57:00,
2013-08-21 21:02:00,71.0,38.0,27.03,SSE,157,1.0,4.0,30,0.00,,,0.00,Rainwise IP-100,2013-08-22 03:02:00,
2013-08-21 21:07:00,71.0,37.0,27.03,SE,135,1.0,4.0,29,0.00,,,0.00,Rainwise IP-100,2013-08-22 03:07:00,
2013-08-21 21:12:00,71.0,38.0,27.03,SE,135,0.0,2.0,30,0.00,,,0.00,Rainwise IP-100,2013-08-22 03:12:00,
2013-08-21 21:17:00,70.0,37.0,27.04,SSE,157,0.0,2.0,30,0.00,,,0.00,Rainwise IP-100,2013-08-22 03:17:00,
2013-08-21 21:22:00,70.0,39.0,27.04,SSE,157,0.0,0.0,32,0.00,,,0.00,Rainwise IP-100,2013-08-22 03:22:00,
2013-08-21 21:27:00,69.0,38.0,27.03,SSE,157,1.0,1.0,33,0.00,,,0.00,Rainwise IP-100,2013-08-22 03:27:00,
2013-08-21 21:32:00,69.0,39.0,27.03,SW,225,0.0,4.0,34,0.00,,,0.00,Rainwise IP-100,2013-08-22 03:32:00,
2013-08-21 21:37:00,69.0,38.0,27.03,South,180,3.0,3.0,33,0.00,,,0.00,Rainwise IP-100,2013-08-22 03:37:00,
2013-08-21 21:42:00,68.0,38.0,27.03,South,180,0.0,4.0,34,0.00,,,0.00,Rainwise IP-100,2013-08-22 03:42:00,
2013-08-21 21:47:00,68.0,38.0,27.04,South,180,0.0,0.0,34,0.00,,,0.00,Rainwise IP-100,2013-08-22 03:47:00,
2013-08-21 21:52:00,67.0,38.0,27.04,South,180,0.0,0.0,35,0.00,,,0.00,Rainwise IP-100,2013-08-22 03:52:00,
2013-08-21 21:57:00,67.0,38.0,27.05,South,180,0.0,3.0,35,0.00,,,0.00,Rainwise IP-100,2013-08-22 03:57:00,
2013-08-21 22:01:00,67.0,40.0,27.05,South,180,0.0,3.0,37,0.00,,,0.00,Rainwise IP-100,2013-08-22 04:01:00,
2013-08-21 22:02:00,67.0,40.0,27.05,South,180,0.0,2.0,37,0.00,,,0.00,Rainwise IP-100,2013-08-22 04:02:00,
2013-08-21 22:07:00,66.0,39.0,27.05,WNW,292,0.0,3.0,37,0.00,,,0.00,Rainwise IP-100,2013-08-22 04:07:00,
2013-08-21 22:12:00,66.0,39.0,27.05,NNE,22,2.0,0.0,37,0.00,,,0.00,Rainwise IP-100,2013-08-22 04:12:00,
2013-08-21 22:17:00,66.0,38.0,27.04,ESE,112,0.0,4.0,36,0.00,,,0.00,Rainwise IP-100,2013-08-22 04:17:00,
2013-08-21 22:22:00,65.0,39.0,27.04,ESE,112,0.0,0.0,39,0.00,,,0.00,Rainwise IP-100,2013-08-22 04:22:00,
2013-08-21 22:27:00,65.0,38.0,27.05,ESE,112,0.0,1.0,37,0.00,,,0.00,Rainwise IP-100,2013-08-22 04:27:00,
2013-08-21 22:32:00,64.0,37.0,27.05,ESE,112,0.0,3.0,37,0.00,,,0.00,Rainwise IP-100,2013-08-22 04:32:00,
2013-08-21 22:37:00,65.0,37.0,27.04,SSE,157,2.0,3.0,36,0.00,,,0.00,Rainwise IP-100,2013-08-22 04:37:00,
2013-08-21 22:42:00,64.0,37.0,27.04,ESE,112,3.0,4.0,36,0.00,,,0.00,Rainwise IP-100,2013-08-22 04:42:00,
2013-08-21 22:47:00,65.0,37.0,27.04,ESE,112,0.0,4.0,35,0.00,,,0.00,Rainwise IP-100,2013-08-22 04:47:00,
2013-08-21 22:52:00,65.0,37.0,27.04,ESE,112,0.0,5.0,35,0.00,,,0.00,Rainwise IP-100,2013-08-22 04:52:00,
2013-08-21 22:57:00,65.0,37.0,27.05,SE,135,0.0,3.0,35,0.00,,,0.00,Rainwise IP-100,2013-08-22 04:57:00,
2013-08-21 23:02:00,65.0,36.0,27.05,East,90,0.0,2.0,34,0.00,,,0.00,Rainwise IP-100,2013-08-22 05:02:00,
2013-08-21 23:07:00,65.0,37.0,27.05,East,90,0.0,0.0,35,0.00,,,0.00,Rainwise IP-100,2013-08-22 05:07:00,
2013-08-21 23:12:00,64.0,37.0,27.05,ENE,67,6.0,6.0,36,0.00,,,0.00,Rainwise IP-100,2013-08-22 05:12:00,
2013-08-21 23:17:00,66.0,36.0,27.05,ENE,67,6.0,7.0,33,0.00,,,0.00,Rainwise IP-100,2013-08-22 05:17:00,
2013-08-21 23:22:00,66.0,37.0,27.05,ENE,67,5.0,8.0,34,0.00,,,0.00,Rainwise IP-100,2013-08-22 05:22:00,
2013-08-21 23:27:00,67.0,37.0,27.05,ESE,112,0.0,7.0,33,0.00,,,0.00,Rainwise IP-100,2013-08-22 05:27:00,
2013-08-21 23:32:00,66.0,35.0,27.05,NE,45,4.0,7.0,32,0.00,,,0.00,Rainwise IP-100,2013-08-22 05:32:00,
2013-08-21 23:37:00,67.0,36.0,27.05,East,90,3.0,9.0,32,0.00,,,0.00,Rainwise IP-100,2013-08-22 05:37:00,
2013-08-21 23:42:00,66.0,37.0,27.05,SE,135,2.0,6.0,34,0.00,,,0.00,Rainwise IP-100,2013-08-22 05:42:00,
2013-08-21 23:47:00,66.0,37.0,27.06,SE,135,3.0,4.0,35,0.00,,,0.00,Rainwise IP-100,2013-08-22 05:47:00,
2013-08-21 23:52:00,65.0,37.0,27.06,ESE,112,3.0,4.0,36,0.00,,,0.00,Rainwise IP-100,2013-08-22 05:52:00,
2013-08-21 23:57:00,65.0,37.0,27.06,ENE,67,3.0,7.0,35,0.00,,,0.00,Rainwise IP-100,2013-08-22 05:57:00,